Temp
-4 -4 -5 -6 -6 -7 -7 -6 -5 -6 -5 -5 -5 -5 -5 -5 -4 -3 -4 -4 -4 -5 -4 -4 -4 -4 -4 -4 -4 -4 -4 -4 -4 -4 -4 -5 -5 -4 -5 -4 -4 -5 -5 -5
-5 -5 -6 -6 -6 -6 -7 -6 -6 -7 -6 -6 -5 -5 -4 -4 -4 -5 -4 -4 -4 -4 -5 -4 -5 -4 -4 -4 -4 -4 -4 -4 -4 -5 -5 -5 -5 -5 -4 -5 -5 -5 -5 -5
-5 -6 -5 -5 -5 -5 -7 -7 -7 -6 -7 -6 -7 -5 -4 -5 -5 -6 -5 -4 -3 -4 -4 -5 -5 -4 -4 -4 -4 -4 -5 -5 -4 -4 -5 -5 -4 -5 -5 -5 -5 -5 -5 -5
-5 -6 -6 -5 -5 -5 -5 -7 -7 -7 -6 -6 -7 -6 -5 -4 -5 -6 -6 -5 -4 -3 -4 -4 -5 -4 -4 -4 -4 -4 -4 -4 -4 -5 -4 -5 -4 -5 -5 -5 -5 -5 -5 -5
-5 -5 -6 -5 -5 -6 -5 -8 -8 -8 -7 -5 -7 -6 -6 -5 -5 -6 -6 -6 -4 -4 -4 -4 -4 -5 -4 -4 -4 -4 -4 -4 -4 -4 -4 -4 -5 -5 -5 -5 -5 -5 -5 -5
-6 -6 -5 -6 -6 -6 -6 -6 -7 -8 -7 -5 -7 -7 -5 -5 -4 -5 -5 -6 -4 -4 -5 -4 -4 -4 -4 -4 -4 -4 -4 -4 -4 -5 -5 -5 -5 -5 -5 -5 -5 -5 -6 -5
-7 -6 -6 -6 -6 -7 -7 -7 -8 -8 -7 -4 -6 -7 -5 -6 -6 -5 -5 -6 -6 -4 -5 -5 -4 -4 -4 -4 -4 -4 -4 -4 -4 -4 -5 -5 -5 -5 -5 -5 -5 -6 -5 -5
-7 -8 -7 -8 -7 -7 -8 -8 -8 -9 -7 -6 -7 -6 -4 -7 -7 -6 -5 -6 -6 -5 -5 -5 -5 -4 -4 -4 -4 -4 -4 -4 -4 -4 -4 -4 -5 -5 -5 -5 -5 -5 -5 -5
-8 -8 -9 -9 -9 -8 -9 -9 -8 -9 -8 -7 -8 -7 -6 -7 -7 -7 -5 -5 -6 -5 -4 -4 -5 -4 -4 -4 -4 -4 -4 -5 -4 -5 -4 -4 -4 -5 -4 -5 -5 -5 -5 -5
-9 -9 -9 -9 -10 -10 -9 -10 -10 -11 -9 -8 -6 -7 -6 -6 -6 -7 -6 -6 -7 -6 -5 -4 -4 -4 -4 -4 -5 -4 -4 -4 -4 -4 -4 -4 -4 -5 -5 -4 -5 -5 -5 -5
-11 -10 -9 -10 -11 -11 -11 -10 -11 -10 -11 -10 -8 -7 -6 -7 -7 -7 -7 -7 -6 -6 -5 -6 -4 -4 -4 -4 -5 -4 -4 -5 -5 -5 -4 -4 -4 -4 -5 -5 -4 -4 -5 -5
-12 -12 -11 -11 -11 -13 -12 -12 -11 -12 -10 -11 -10 -6 -7 -7 -7 -7 -7 -5 -7 -7 -6 -6 -6 -5 -4 -4 -5 -5 -4 -4 -5 -5 -5 -5 -5 -4 -4 -4 -4 -4 -5 -5
-12 -12 -12 -12 -12 -14 -13 -13 -12 -13 -12 -10 -11 -6 -8 -8 -7 -7 -7 -6 -6 -6 -8 -7 -7 -7 -6 -5 -5 -6 -5 -4 -5 -5 -5 -5 -5 -5 -4 -4 -4 -4 -4 -4
-13 -13 -13 -13 -14 -14 -14 -14 -13 -12 -13 -11 -10 -9 -9 -9 -8 -7 -7 -6 -6 -5 -6 -6 -5 -6 -6 -6 -6 -6 -6 -5 -5 -5 -5 -6 -6 -5 -5 -5 -4 -4 -4 -4
-13 -14 -14 -14 -15 -15 -14 -14 -13 -13 -13 -12 -10 -10 -9 -10 -8 -7 -7 -6 -6 -6 -6 -5 -6 -5 -6 -6 -6 -5 -5 -5 -4 -4 -5 -6 -6 -5 -5 -5 -5 -5 -4 -4
-15 -14 -15 -15 -15 -15 -15 -14 -14 -13 -13 -13 -11 -11 -9 -10 -9 -8 -7 -8 -6 -6 -6 -6 -6 -6 -6 -6 -7 -6 -4 -4 -4 -4 -5 -5 -5 -5 -5 -5 -5 -5 -5 -5
-16 -16 -16 -15 -17 -16 -16 -14 -15 -15 -14 -13 -12 -11 -10 -11 -10 -8 -8 -7 -8 -9 -7 -6 -7 -7 -7 -7 -7 -6 -6 -5 -5 -5 -5 -5 -5 -6 -6 -6 -5 -6 -6 -6
-16 -16 -17 -16 -17 -17 -16 -17 -16 -16 -15 -12 -12 -11 -10 -10 -10 -8 -9 -9 -7 -7 -7 -7 -6 -7 -7 -7 -6 -6 -7 -7 -6 -6 -5 -5 -5 -6 -6 -6 -6 -6 -6 -6
-16 -16 -17 -17 -17 -16 -16 -17 -16 -15 -14 -14 -13 -12 -11 -11 -10 -10 -10 -9 -8 -8 -9 -8 -6 -5 -5 -8 -7 -7 -7 -7 -7 -7 -7 -6 -6 -6 -7 -7 -7 -7 -7 -6
-17 -18 -18 -18 -17 -17 -16 -17 -17 -15 -14 -14 -13 -12 -12 -11 -11 -10 -11 -9 -8 -8 -9 -6 -7 -6 -5 -5 -7 -8 -7 -7 -8 -8 -7 -8 -7 -8 -8 -7 -7 -7 -7 -7
-18 -18 -18 -17 -18 -18 -18 -18 -17 -16 -14 -13 -13 -12 -11 -10 -9 -9 -10 -10 -9 -9 -8 -7 -9 -8 -8 -8 -7 -7 -7 -7 -6 -6 -6 -7 -6 -6 -5 -7 -7 -7 -7 -7
-18 -18 -18 -18 -18 -18 -18 -18 -18 -17 -15 -14 -12 -11 -11 -11 -11 -10 -10 -10 -10 -10 -10 -9 -10 -11 -11 -10 -9 -9 -8 -7 -7 -9 -9 -7 -8 -7 -7 -6 -5 -7 -7 -7
-18 -19 -18 -19 -18 -18 -18 -18 -17 -16 -14 -14 -13 -13 -12 -11 -12 -11 -10 -11 -11 -11 -11 -12 -12 -10 -11 -11 -11 -11 -10 -10 -10 -9 -7 -7 -8 -8 -9 -7 -7 -8 -8 -8
-19 -19 -19 -19 -19 -19 -18 -18 -17 -17 -15 -14 -14 -14 -13 -12 -12 -12 -12 -12 -13 -13 -13 -13 -13 -12 -11 -12 -11 -11 -11 -11 -10 -9 -9 -8 -8 -8 -9 -9 -8 -8 -8 -8
-19 -19 -19 -19 -19 -18 -18 -18 -17 -16 -16 -16 -14 -14 -14 -13 -12 -12 -13 -12 -12 -12 -11 -12 -12 -12 -12 -10 -10 -10 -10 -10 -10 -10 -9 -8 -8 -7 -7 -7 -7 -8 -8 -8
-18 -18 -19 -19 -19 -18 -18 -18 -18 -17 -17 -16 -15 -14 -15 -14 -14 -13 -13 -12 -13 -13 -12 -13 -13 -14 -14 -13 -12 -10 -10 -10 -10 -10 -10 -9 -8 -8 -8 -8 -8 -8 -7 -7
Height
5895 5898 5901 5900 5904 5904 5904 5905 5907 5908 5911 5915 5917 5918 5916 5918 5918 5919 5922 5924 5926 5925 5927 5929 5931 5932 5934 5935 5937 5938 5939 5941 5942 5944 5945 5949 5951 5954 5956 5958 5959 5960 5962 5964
5892 5895 5895 5895 5898 5900 5901 5900 5903 5903 5908 5909 5911 5914 5915 5915 5915 5918 5920 5923 5925 5925 5926 5928 5930 5931 5933 5935 5937 5939 5941 5941 5944 5946 5947 5949 5952 5955 5957 5959 5961 5962 5964 5965
5886 5890 5890 5891 5892 5893 5896 5899 5901 5902 5903 5906 5906 5906 5911 5913 5912 5915 5918 5919 5922 5923 5923 5927 5928 5930 5932 5933 5935 5938 5940 5942 5944 5947 5949 5951 5953 5955 5957 5959 5961 5962 5963 5965
5879 5883 5884 5886 5888 5888 5889 5893 5896 5896 5897 5899 5899 5901 5903 5908 5910 5912 5914 5915 5917 5920 5920 5923 5926 5927 5930 5932 5933 5935 5938 5941 5943 5946 5949 5950 5951 5954 5956 5959 5960 5961 5963 5964
5872 5874 5876 5879 5880 5880 5886 5885 5885 5885 5888 5893 5895 5893 5901 5899 5903 5909 5910 5911 5913 5918 5918 5920 5924 5925 5926 5930 5932 5933 5935 5939 5941 5944 5946 5949 5952 5954 5955 5956 5957 5958 5960 5961
5863 5866 5868 5871 5874 5877 5879 5878 5878 5878 5879 5882 5891 5887 5892 5892 5902 5905 5907 5908 5911 5915 5917 5919 5921 5923 5925 5927 5930 5932 5933 5936 5938 5941 5944 5947 5950 5952 5953 5954 5954 5956 5957 5957
5854 5855 5858 5859 5861 5867 5871 5873 5872 5872 5872 5878 5883 5880 5886 5889 5897 5900 5903 5905 5908 5911 5912 5915 5919 5921 5922 5925 5927 5928 5931 5934 5936 5938 5940 5943 5946 5948 5949 5951 5953 5954 5955 5955
5842 5848 5847 5850 5853 5856 5857 5862 5863 5862 5866 5869 5872 5871 5884 5888 5890 5894 5897 5900 5902 5907 5910 5911 5914 5917 5918 5921 5923 5925 5927 5930 5933 5935 5937 5939 5942 5945 5947 5948 5950 5952 5952 5953
5833 5836 5838 5840 5841 5844 5854 5848 5859 5853 5859 5858 5860 5869 5878 5878 5880 5885 5888 5892 5896 5900 5906 5907 5909 5911 5914 5917 5919 5922 5923 5925 5929 5931 5933 5936 5939 5941 5943 5945 5946 5948 5950 5951
5824 5822 5827 5830 5829 5834 5838 5848 5845 5846 5848 5849 5854 5860 5868 5872 5873 5878 5882 5885 5890 5892 5899 5903 5904 5906 5909 5912 5914 5917 5919 5921 5923 5926 5930 5932 5934 5936 5938 5941 5944 5945 5947 5947
5815 5814 5814 5817 5821 5825 5830 5839 5835 5835 5837 5839 5843 5852 5864 5866 5867 5868 5873 5879 5885 5887 5891 5895 5896 5899 5904 5906 5907 5911 5913 5915 5919 5921 5924 5927 5930 5932 5935 5937 5938 5941 5943 5942
5810 5806 5803 5804 5810 5813 5820 5825 5822 5821 5828 5828 5832 5841 5854 5855 5860 5862 5867 5865 5874 5881 5882 5885 5889 5890 5896 5900 5902 5904 5907 5910 5914 5916 5917 5920 5924 5927 5929 5931 5933 5935 5939 5939
5801 5798 5794 5792 5799 5803 5803 5805 5809 5809 5813 5820 5823 5832 5844 5846 5850 5854 5853 5856 5866 5864 5871 5878 5881 5883 5888 5893 5897 5898 5902 5905 5908 5910 5912 5914 5917 5920 5922 5923 5926 5928 5931 5933
5787 5787 5785 5784 5787 5789 5791 5796 5802 5801 5803 5808 5813 5822 5833 5837 5840 5843 5846 5852 5856 5858 5863 5868 5873 5874 5881 5886 5890 5892 5894 5898 5901 5903 5906 5908 5911 5913 5915 5916 5917 5920 5922 5924
5776 5776 5774 5775 5776 5775 5781 5788 5793 5796 5799 5798 5808 5810 5820 5827 5831 5832 5838 5845 5849 5854 5858 5863 5867 5866 5867 5877 5882 5886 5889 5892 5896 5899 5901 5903 5903 5905 5907 5910 5911 5911 5913 5916
5767 5765 5761 5763 5765 5761 5764 5775 5778 5784 5787 5791 5800 5805 5811 5816 5822 5826 5831 5837 5840 5845 5850 5858 5862 5866 5865 5869 5876 5880 5884 5885 5887 5890 5894 5895 5897 5898 5900 5901 5903 5904 5906 5908
5758 5753 5750 5752 5752 5749 5752 5760 5763 5768 5775 5783 5790 5794 5800 5805 5813 5820 5823 5825 5829 5835 5837 5842 5845 5855 5857 5860 5868 5874 5878 5878 5880 5883 5884 5886 5889 5891 5891 5893 5894 5897 5899 5900
5748 5744 5740 5739 5739 5739 5747 5744 5746 5750 5757 5769 5777 5785 5791 5799 5801 5810 5815 5817 5820 5818 5824 5826 5808 5833 5849 5853 5859 5866 5864 5872 5873 5875 5877 5878 5880 5883 5883 5885 5888 5889 5891 5893
5736 5733 5729 5728 5728 5733 5733 5737 5740 5743 5750 5758 5769 5773 5780 5784 5791 5794 5801 5808 5813 5813 5816 5818 5820 5810 5821 5836 5845 5849 5854 5862 5864 5864 5867 5867 5871 5874 5873 5875 5878 5880 5881 5883
5725 5724 5723 5723 5721 5720 5723 5728 5730 5734 5740 5748 5753 5760 5770 5776 5782 5787 5792 5799 5804 5806 5805 5812 5812 5811 5794 5814 5833 5841 5847 5850 5855 5859 5861 5864 5862 5861 5866 5870 5873 5874 5875 5876
5717 5715 5715 5714 5711 5711 5710 5718 5722 5726 5740 5741 5747 5755 5762 5770 5776 5779 5784 5790 5794 5797 5803 5806 5807 5810 5814 5818 5827 5832 5834 5841 5836 5833 5843 5845 5852 5850 5826 5848 5860 5867 5869 5864
5707 5705 5706 5705 5705 5707 5708 5712 5716 5720 5727 5728 5738 5748 5754 5760 5756 5763 5773 5781 5784 5788 5790 5798 5804 5808 5810 5812 5816 5821 5823 5824 5825 5830 5838 5843 5846 5848 5847 5840 5837 5855 5857 5854
5700 5694 5691 5694 5696 5699 5701 5705 5711 5715 5723 5721 5724 5736 5747 5749 5753 5765 5767 5771 5775 5779 5783 5786 5793 5799 5805 5808 5810 5814 5816 5821 5824 5828 5835 5835 5833 5837 5842 5841 5849 5851 5847 5845
5689 5686 5682 5681 5686 5690 5695 5700 5707 5709 5714 5716 5725 5732 5741 5745 5746 5751 5755 5762 5767 5772 5776 5781 5786 5792 5796 5800 5803 5804 5807 5813 5816 5819 5823 5828 5828 5829 5830 5835 5839 5843 5841 5833
5682 5679 5677 5677 5679 5683 5689 5696 5703 5707 5710 5714 5722 5728 5733 5734 5736 5742 5747 5754 5757 5763 5768 5772 5774 5779 5784 5789 5791 5793 5798 5802 5804 5807 5811 5815 5818 5820 5822 5823 5826 5828 5828 5828
5680 5677 5675 5675 5678 5682 5687 5694 5700 5704 5705 5714 5713 5722 5723 5728 5734 5738 5742 5743 5745 5751 5755 5758 5763 5767 5772 5778 5783 5787 5789 5791 5793 5794 5797 5800 5805 5808 5809 5810 5811 5813 5813 5814
Wind_Speed
19 18 17 23 21 21 21 25 21 16 13 6 3 8 6 9 10 7 5 4 6 5 7 10 9 7 9 9 8 9 10 8 9 15 18 19 19 18 20 20 19 17 15 12
21 18 18 23 23 27 27 26 21 21 11 12 18 12 6 6 10 8 11 11 8 6 6 9 13 12 10 9 10 10 8 10 9 10 15 15 16 16 15 13 13 13 11 9
24 22 24 25 26 29 33 31 21 16 16 10 13 16 8 8 4 6 12 15 15 11 9 9 12 14 13 11 10 11 11 12 13 13 14 16 17 16 14 13 10 8 7 6
28 27 27 29 28 32 34 33 30 24 24 19 20 13 15 9 13 11 7 13 17 15 12 13 12 14 15 15 12 12 13 12 16 15 14 15 16 14 13 12 10 8 7 8
31 31 34 34 34 35 33 39 36 36 33 28 23 26 12 17 13 15 11 12 16 16 12 14 15 15 18 17 17 15 15 15 16 16 16 14 13 11 10 10 11 9 10 9
31 35 37 36 38 36 36 39 42 41 40 39 23 23 19 23 11 20 13 11 14 16 12 12 17 17 15 17 19 18 16 16 17 17 17 17 16 13 11 12 11 10 9 8
27 32 37 44 43 40 39 40 40 44 42 46 30 30 21 24 16 16 16 7 11 13 16 13 13 15 18 16 19 21 20 18 18 18 19 18 16 14 13 11 9 8 9 8
30 26 32 42 49 44 43 42 46 47 48 46 40 35 16 16 19 17 20 12 13 10 9 16 19 20 21 23 19 22 22 22 21 20 20 19 19 16 17 16 10 8 6 10
31 29 28 27 49 52 44 48 44 52 51 54 48 39 31 27 30 26 26 18 13 13 14 20 20 24 22 24 24 20 22 24 24 26 23 20 19 18 17 15 13 10 8 11
34 38 29 24 36 50 52 49 50 45 51 55 54 40 42 33 31 30 23 23 21 24 20 22 21 24 23 24 26 25 23 20 23 26 25 25 24 23 21 19 18 16 14 13
34 38 38 33 27 42 48 48 53 52 47 47 58 49 33 33 31 35 25 27 24 29 23 13 21 25 25 29 29 28 26 25 21 20 24 25 26 26 24 23 22 20 18 17
29 37 42 39 27 33 41 47 60 53 56 50 49 54 42 41 38 37 36 41 28 23 24 20 23 27 27 26 31 32 31 29 26 24 23 22 24 25 25 26 26 25 23 23
30 33 37 40 28 29 43 45 56 50 53 56 52 54 46 39 35 46 50 49 39 35 25 24 26 22 23 25 27 34 35 31 29 28 27 26 24 21 26 27 27 27 25 25
33 30 31 33 31 34 47 45 45 49 48 57 58 54 45 42 40 36 38 34 38 41 35 36 30 29 27 27 30 33 35 33 31 30 28 27 26 25 25 28 30 28 29 28
37 34 33 32 30 37 43 48 44 40 41 46 58 57 50 44 44 29 38 32 41 40 37 42 35 36 36 33 31 33 32 30 27 26 26 28 30 29 28 27 28 30 30 30
35 38 38 38 29 40 43 47 44 41 46 44 50 49 52 49 51 34 40 34 37 42 44 49 33 35 37 34 33 28 32 30 28 27 28 31 33 30 28 29 29 30 32 31
37 41 43 40 31 37 44 40 49 39 36 43 49 50 57 42 51 36 38 41 38 41 46 53 65 51 42 38 33 31 24 27 26 26 29 30 32 31 30 32 31 30 32 33
39 40 43 44 38 36 40 37 52 51 30 42 44 54 54 48 52 47 40 39 50 50 47 60 34 58 36 34 37 44 27 26 28 28 29 29 31 34 34 33 32 31 31 32
38 39 39 38 37 25 39 34 51 60 28 35 37 46 50 38 56 44 49 45 42 41 40 34 39 50 40 37 33 31 28 36 36 32 34 33 32 34 34 31 29 29 30 31
30 25 26 30 35 38 37 33 41 67 42 30 38 48 45 52 51 53 49 57 53 46 34 39 49 36 43 36 28 29 32 38 45 34 35 37 37 37 34 32 30 31 30 30
26 29 24 24 34 36 30 29 28 52 42 30 39 51 50 56 52 63 57 53 61 54 50 35 35 51 32 25 30 34 36 49 42 35 38 50 35 40 37 43 35 35 36 38
25 28 27 27 26 28 28 32 33 38 51 32 49 50 55 39 56 40 50 57 52 54 48 49 37 27 31 34 35 38 40 40 41 35 36 34 38 42 42 23 19 37 42 48
26 31 36 34 30 28 30 32 36 40 59 45 24 40 38 27 51 58 33 42 44 45 44 35 35 38 37 40 39 39 41 43 45 47 45 45 42 41 37 40 33 41 45 49
28 25 23 24 28 29 28 33 34 39 51 52 27 38 24 28 32 50 56 44 43 39 40 41 42 44 43 43 44 46 47 47 47 46 47 47 47 48 46 43 48 47 50 55
22 11 13 14 17 23 26 27 29 33 46 51 41 32 44 20 20 27 23 34 42 47 49 48 50 52 55 54 54 52 50 50 49 46 43 46 50 53 55 56 54 54 53 56
15 9 5 2 7 17 23 26 25 27 33 40 42 38 30 37 22 16 18 35 49 51 52 39 45 45 45 45 55 63 58 56 55 55 54 56 56 56 55 56 57 54 56 56
Wind_Direction
243 241 247 234 224 221 233 229 216 233 222 234 217 218 219 286 233 246 277 287 254 215 188 191 200 175 171 165 147 129 135 130 130 135 136 142 144 146 156 161 165 161 157 155
244 241 233 237 230 225 226 240 227 219 226 279 252 247 223 241 223 223 262 274 258 241 208 196 215 226 201 186 171 170 159 144 151 156 153 153 154 156 160 167 176 170 170 181
240 235 235 238 234 225 221 230 227 232 232 203 252 250 213 187 186 191 241 254 253 240 220 209 208 215 208 199 192 176 183 182 161 169 164 159 162 156 160 166 182 187 192 213
247 240 237 236 236 236 226 223 227 236 232 230 233 228 222 209 174 196 238 257 230 230 230 211 214 211 209 206 203 197 182 187 188 177 176 183 175 174 182 180 194 218 233 241
254 247 242 235 233 235 237 220 223 231 230 222 202 229 209 236 188 184 227 258 229 218 230 213 211 218 214 211 212 206 198 191 193 187 188 188 183 192 209 217 210 212 229 238
262 256 244 240 240 237 235 231 226 226 225 220 200 236 220 244 226 194 220 260 241 205 224 226 223 228 229 218 217 216 211 203 201 197 196 199 201 209 216 222 224 220 233 224
279 264 252 243 235 233 238 233 218 218 224 220 218 235 236 238 237 204 210 220 266 201 216 233 239 247 240 225 219 219 219 215 211 210 204 205 211 214 223 223 233 237 235 230
295 274 266 244 241 229 228 230 217 217 222 231 232 233 215 227 233 233 226 234 237 256 226 236 239 238 238 224 221 222 218 221 221 219 218 210 210 209 216 222 214 228 241 238
297 286 286 274 241 237 222 225 222 223 219 227 231 225 198 213 219 229 228 237 262 263 242 251 233 235 233 218 221 223 225 225 227 225 222 224 220 219 224 233 230 223 231 244
297 296 291 289 249 234 230 222 217 221 226 224 229 221 223 216 225 226 234 242 254 256 257 245 252 232 219 213 220 225 230 227 230 238 234 233 233 229 225 229 233 233 226 234
297 302 297 298 263 236 230 219 221 219 225 230 228 220 223 205 219 230 217 246 246 252 257 255 230 228 214 216 221 224 232 231 230 235 242 238 241 242 236 232 234 231 233 232
291 300 297 297 287 230 219 220 222 225 216 225 229 217 206 212 210 219 222 217 211 243 253 253 220 221 220 221 221 227 230 234 232 231 235 238 240 241 243 243 238 237 233 236
295 297 296 295 292 226 217 217 219 232 225 217 226 216 211 225 218 218 227 227 219 203 222 243 197 216 232 226 226 228 232 230 230 233 234 236 236 238 236 241 243 241 236 239
289 288 291 293 294 246 227 223 220 228 233 222 218 221 209 226 230 244 216 218 224 210 218 225 220 206 224 224 222 220 225 229 226 227 234 233 233 235 237 239 240 239 239 236
284 284 281 279 276 251 239 225 225 229 232 233 219 222 209 220 221 215 226 239 221 223 224 223 221 203 206 216 216 215 218 224 227 227 231 234 237 238 241 243 244 245 245 240
279 283 277 280 280 239 237 231 229 226 226 230 227 223 220 217 219 224 225 234 209 220 216 224 219 210 207 208 217 216 218 219 223 225 230 235 240 244 245 247 249 247 243 245
272 276 277 281 275 240 231 227 231 232 226 219 223 224 221 213 227 214 224 229 231 234 233 228 234 223 209 205 212 217 221 228 227 233 232 234 238 240 241 243 247 249 245 247
276 277 273 276 260 245 224 236 232 229 219 212 222 222 225 221 223 221 226 230 226 235 239 240 238 204 198 198 217 215 202 218 222 229 232 231 234 235 237 239 245 246 244 245
281 282 270 265 258 259 239 239 230 227 205 199 213 224 226 224 218 231 234 232 227 242 238 239 229 200 189 197 203 202 214 221 221 221 228 229 228 229 227 223 225 228 233 238
286 279 275 269 263 262 230 231 239 230 205 203 199 215 221 226 228 226 233 235 240 242 254 229 226 222 205 206 220 222 217 219 218 220 229 228 225 221 222 224 226 229 234 240
278 269 265 275 262 252 229 231 232 238 208 197 199 210 218 221 224 225 228 234 234 242 241 238 252 224 242 212 222 227 228 228 222 223 235 234 242 231 254 219 224 235 240 245
288 279 266 268 254 244 242 236 231 234 227 194 204 211 214 223 233 222 226 231 235 237 245 244 245 235 240 242 241 245 244 247 255 272 272 264 256 238 255 244 240 235 243 250
286 281 269 256 254 245 239 236 234 232 220 216 178 194 202 211 221 226 207 228 240 243 245 253 250 242 241 243 248 250 249 251 253 256 253 260 268 271 276 265 256 244 250 251
287 291 272 249 241 243 239 236 231 234 238 222 208 196 204 231 242 226 224 228 229 232 242 247 250 250 250 251 253 254 255 255 256 258 262 263 263 263 268 269 265 257 267 264
309 293 272 241 235 225 232 232 226 235 240 242 226 208 209 217 217 237 245 244 246 243 243 244 247 248 250 250 254 258 257 257 258 257 260 266 268 265 261 261 263 270 275 277
0 344 247 219 215 215 222 224 228 235 241 238 249 230 252 235 241 230 234 238 225 234 239 235 246 250 251 253 255 251 252 256 256 256 265 270 270 267 268 269 269 270 269 273